KMRYKHAF

Guest
Details From KMRY - Monterey Peninsula
To KHAF - HALF MOON BAY
Flight Number -
Tags decoded
Created
Modified
Stats Distance 69 nm / 127 km
Max Altitude 0 ft / 0 m
Waypoints 4
Social Downloads 1
Likes 0
Share VATSIM

Download

Looking for another format? Having issues loading an existing format? Contact us
Advertisement - Login to hide

Notes

Requested: KMRY TAILS HOLD HOMKA KHAF Unmatched points: HOLD

Route

KMRY TAILS HOMKA KHAF

ID Type Via Altitude Latitude Longitude Leg Dist Tot Dist Heading (true) Name
O KMRY APT - 0 ft / 0 m 36.58692˚ -121.84193˚ - 0 nm - Monterey Peninsula
TAILS FIX - 0 ft / 0 m 37.27286˚ -122.52036˚ 52 nm 52 nm 322° / 321° -
HOMKA FIX - 0 ft / 0 m 37.33567˚ -122.44389˚ 5 nm 57 nm 44° / 44° -
O KHAF APT - 0 ft / 0 m 37.51343˚ -122.50116˚ 11 nm 68 nm 346° / 346° HALF MOON BAY

Altitude Profile

Advertisement - Login to hide

KMRY

Details ICAO KMRY (MRY)
Name Monterey Peninsula
Region United States
Timezone America/Los_Angeles (UTC-7.0)
Stats Elevation 257 ft / 78 m (AMSL)
Location 36.586916° -121.841927°
Runways 2
Magnetic Variation 13.118° E

METAR

KMRY 241430Z 00000KT 10SM OVC018 12/09 A3006 RMK AO2 T01220089

Decode

TAF

TAF KMRY 241120Z 2412/2512 24008KT P6SM OVC015 FM241800 29008KT P6SM SCT015 BKN060 TEMPO 2418/2421 BKN018 FM242200 25011G18KT P6SM SCT025 BKN050 FM250300 24006KT P6SM VCSH BKN025 OVC030 FM250600 VRB03KT P6SM VCSH OVC025

Decode

Departure Runways

ID Width Length Bearing (true) Bearing (mag) Surface Threshold Offset Overrun Length
10L 59 ft / 18 m 3,508 ft / 1,069 m 112.85° 99.73° Asphalt 0 ft / 0 m 230 ft / 70 m
10R 151 ft / 46 m 7,605 ft / 2,318 m 112.84° 99.72° Asphalt 0 ft / 0 m 174 ft / 53 m
28L 151 ft / 46 m 7,605 ft / 2,318 m 292.85° 279.73° Asphalt 1,001 ft / 305 m 190 ft / 58 m
28R 59 ft / 18 m 3,508 ft / 1,069 m 292.85° 279.73° Asphalt 0 ft / 0 m 0 ft / 0 m

KHAF

Details ICAO KHAF
Name HALF MOON BAY
Region United States
Timezone America/Los_Angeles (UTC-7.0)
Stats Elevation 66 ft / 20 m (AMSL)
Location 37.513435° -122.501163°
Runways 1
Magnetic Variation 13.418° E

METAR

KHAF 241435Z AUTO 16003KT 10SM OVC015 12/09 A3005 RMK AO2

Decode

TAF

Not found

Destination Runways

ID Width Length Bearing (true) Bearing (mag) Surface Threshold Offset Overrun Length
12 151 ft / 46 m 5,005 ft / 1,525 m 137.06° 123.64° Asphalt 764 ft / 233 m 0 ft / 0 m
30 151 ft / 46 m 5,005 ft / 1,525 m 317.06° 303.64° Asphalt 764 ft / 233 m 0 ft / 0 m

Popular Alternatives